Other Public Products
Issued by NWS Grand Forks, ND

Home | Current Version | Previous Version | Text Only | Print | Product List | Glossary On
Versions: 1 2 3 4 5 6 7 8 9 10 11 12 13 14 15 16 17 18 19 20 21 22 23 24 25 26 27 28 29 30 31 32 33 34 35 36 37 38 39 40 41 42 43 44 45 46 47 48 49 50
000
FPUS83 KFGF 021531
OPUFGF
PRAIRIE TO PINES WEATHER ROUNDUP
NATIONAL WEATHER SERVICE EASTERN NORTH DAKOTA/GRAND FORKS ND
1000 AM CDT TUE JUN 02 2015

 **SATELLITE DATA USED TO AUGMENT SKY COVER AT AUTOMATED STATIONS**
 *****  WEATHER ACROSS EASTERN NORTH DAKOTA  *****

CITY           SKY/WX    TMP DP  RH WIND       PRES   REMARKS
GRAND FORKS    CLOUDY    60  55  83 S12       29.83R
GRAND FORKS AF CLOUDY    60  55  82 S14       29.82R
GRAND CITY NWS   N/A     59 N/A N/A S10         N/A
BUXTON           N/A     60  59  94 SE15G26     N/A
DEVILS LAKE    CLOUDY    63  55  77 SW5       29.79F
FARGO          CLOUDY    65  54  67 S21G28    29.85F
WAHPETON ARPT  CLOUDY    64  54  68 S15       29.90F
$$

 *****  WEATHER ACROSS CENTRAL AND WESTERN NORTH DAKOTA  *****

CITY           SKY/WX    TMP DP  RH WIND       PRES   REMARKS
JAMESTOWN      CLOUDY    62  57  83 SE16      29.76F
BISMARCK       CLOUDY    65  62  90 E7        29.76S
MINOT          CLOUDY    63  59  87 N7        29.80R
MINOT AFB      CLOUDY    63  63 100 NE12      29.80R
GARRISON         N/A     66  59  78 NE5       29.79R
WILLISTON      RAIN      58  55  90 NE13      29.82F FOG
DICKINSON      PTSUNNY   64  57  78 S7        29.79R
HETTINGER      SUNNY     69  56  62 S5        29.82R
$$

 *****  OTHER OBSERVATIONS NORTHEAST NORTH DAKOTA  *****

CITY           SKY/WX    TMP DP  RH WIND       PRES   REMARKS
WALHALLA       LGT RAIN  59  59 100 MISG      29.83S
LANGDON        CLOUDY    63  61  94 NE10      29.83R
CAVALIER       PTSUNNY   63  61  94 N7        29.81F
GRAFTON        FAIR      61  61 100 S16       29.84R
CANDO          CLOUDY    59  59 100 E7        29.81F
FORT TOTTEN      N/A     64  60  87 S5        29.95
ROLLA          CLOUDY    55  55 100 NE14      29.85S
RUGBY          NOT AVBL
 ***** THE ABOVE OBSERVATIONS ARE NON NWS ARE NOT QUALITY
        CONTROLLED AND MAY MIS-REPORT RAIN FOR SNOW...
$$

 *****  OTHER OBSERVATIONS SOUTHEAST NORTH DAKOTA *****

CITY           SKY/WX    TMP DP  RH WIND       PRES   REMARKS
COOPERSTOWN    NOT AVBL
VALLEY CITY    FAIR      59  59 100 SE9       29.78F
OAKES            N/A     64  63  94 SE18G24   29.81F
GWINNER        NOT AVBL
BUFFALO        NOT AVBL
WYNDMERE       NOT AVBL
 ***** THE ABOVE OBSERVATIONS ARE NON NWS ARE NOT QUALITY
       CONTROLLED AND MAY MIS-REPORT RAIN FOR SNOW...
$$

  *****  WEATHER ACROSS NORTHERN MINNESOTA  *****

CITY           SKY/WX    TMP DP  RH WIND       PRES   REMARKS
FLAG ISLAND    CLOUDY    59  52  77 S13       29.86F
WARROAD        CLOUDY    63  57  82 SW10      29.87F
ROSEAU         CLOUDY    64  55  72 S13       29.86S
HALLOCK        CLOUDY    64  57  77 SE7       29.81F
THF RVR FALLS  CLOUDY    61  55  82 S9        29.85F
HALSTAD          N/A     64  55  75 S20         N/A
FOSSTON        LGT RAIN  57  54  88 S13       29.89F
BAUDETTE       LGT RAIN  60  48  64 S10       29.90F
WASKISH        CLOUDY    55  52  88 SE7       29.91F
CROOKSTON      DRIZZLE   61  57  88 S21G28    29.83R
$$
  *****  WEATHER ACROSS CENTRAL AND WEST MINNESOTA  *****

CITY           SKY/WX    TMP DP  RH WIND       PRES   REMARKS
BEMIDJI        RAIN      56  53  89 SE9       29.92F
PARK RAPIDS    CLOUDY    68  50  52 S13       29.95F
WADENA         PTSUNNY   66  54  63 S12       29.97R
DETROIT LAKES  CLOUDY    66  54  63 S15       29.93F
MOORHEAD       CLOUDY    64  54  68 S22       29.88F
FERGUS FALLS   CLOUDY    66  54  63 S17       29.93F
ELBOW LAKE     CLOUDY    65  54  67 S17       29.95S
MORRIS MN      CLOUDY    66  54  63 S13G18    29.96R
STAPLES        MOSUNNY   68  52  56 S13G21    29.97S
WHEATON        CLOUDY    64  54  68 SE17      29.91F
$$
  *****  WEATHER ELSEWHERE ACROSS MINNESOTA  *****

CITY           SKY/WX    TMP DP  RH WIND       PRES   REMARKS
DULUTH         MOSUNNY   59  42  53 S10       30.05F
INTRNTL FALLS  CLOUDY    58  45  62 VRB7      29.94F
ELY            PTSUNNY   63  41  45 S12G18    30.01F
CLOQUET        MOSUNNY   66  46  48 S10G17    30.02F
BRAINERD       PTSUNNY   66  50  56 S14       29.99F
HIBBING        CLOUDY    62  44  51 S7        30.00F
ALEXANDRIA     PTSUNNY   67  52  58 S17       29.97R
SAINT CLOUD    MOSUNNY   66  53  63 S15G23    29.99F
MINNEAPOLIS    PTSUNNY   66  51  58 SE13      30.05F
$$

  *****  WEATHER ACROSS SOUTH DAKOTA  *****

CITY           SKY/WX    TMP DP  RH WIND       PRES   REMARKS
SIOUX FALLS    PTSUNNY   66  56  70 S17G30    29.93F
BROOKINGS      MOSUNNY   66  55  68 S18       29.94R
WATERTOWN      PTSUNNY   66  56  70 S13       29.91F
HURON          CLOUDY    67  57  70 S14G21    29.86F
SISSETON         N/A     66  56  70 S18       29.88F
ABERDEEN       CLOUDY    63  58  83 S20G29    29.80F
MITCHELL       PTSUNNY   70  59  68 S25       29.86F
PIERRE         MOSUNNY   72  62  71 SE15      29.74F
MOBRIDGE       SUNNY     73  64  73 SE14      29.72F
RAPID CITY     SUNNY     71  56  58 NW16      29.81F
$$

  *****  SOME WEATHER IN NEARBY STATES *****

CITY           SKY/WX    TMP DP  RH WIND       PRES   REMARKS
GLASGOW MT     RAIN      53  49  86 NE10      29.88S FOG
GREAT FALLS MT CLOUDY    56  52  86 SW6       29.88R
CHEYENNE WY    SUNNY     63  50  62 SW3       30.01F
SCOTTSBLUFF NE SUNNY     69  58  67 W6        29.92S
OMAHA NE       CLOUDY    64  54  69 SE20      30.01F
DES MOINES IA  CLOUDY    63  53  70 S16       30.10F
DAVENPORT IA   MOSUNNY   63  48  58 S7        30.18F
CHICAGO IL     MOSUNNY   61  47  59 CALM      30.20F
EAU CLAIRE WI  SUNNY     63  43  48 S12       30.12F
LA CROSSE WI   SUNNY     64  46  52 S10       30.14F
$$

  *****  SOME NATIONAL WEATHER *****

CITY           SKY/WX    TMP DP  RH WIND       PRES   REMARKS
LA GUARDIA NY  CLOUDY    52  49  89 NE10      30.15R
RALEIGH NC     RAIN      70  68  93 SW5       30.06R FOG
ATLANTA GA     MOSUNNY   76  62  62 W7        30.05S
NEW ORLEANS LA MOSUNNY   82  70  66 N7        30.01F
OKLAHOMA CITY  PTSUNNY   77  62  59 S15       30.01S
ALBUQUERQUE NM MOSUNNY   70  45  40 W7        30.18S
SALT LAKE CITY MOSUNNY   67  53  61 NW6       29.96R
LOS ANGELES CA PTSUNNY   61  57  87 E3        30.00R
BOISE ID       SUNNY     63  45  51 NW9       30.01S
SEATTLE WA     LGT RAIN  55  52  88 S10       30.01R
$$

*** WEATHER ACROSS MANITOBA...SASKATCHEWAN AND ONTARIO ***
                ***ONTARIO***

CITY           SKY/WX    TMP DP  RH WIND       PRES   REMARKS
GERALDTON      PTSUNNY   61  39  44 SW12G23   30.07F
THUNDER BAY    CLOUDY    55  43  62 NE9       30.09F
SIOUX LOOKOUT  PTSUNNY   59  46  63 S7        29.94S
TORONTO        MOSUNNY   61  48  63 S9        30.22S
BIG TROUT LK   CLOUDY    52  50  93 W9        29.76S
PICKLE LAKE    PTSUNNY   63  41  45 SW14G22   29.88S
DRYDEN         CLOUDY    54  50  87 S8        29.93F
KENORA         CLOUDY    59  48  67 S12       29.88F
$$
                *** MANITOBA***

CITY           SKY/WX    TMP DP  RH WIND       PRES   REMARKS
BRANDON        CLOUDY    61  50  67 NE23G31   29.88R
DAUPHIN        SUNNY     59  46  63 NE14G21   29.95F
ISLAND LAKE    MOSUNNY   54  41  62 W13       29.84F
PILOT MOUND      N/A     57  55  94 N14G21      N/A
THE PAS        MOSUNNY   50  34  53 N9        29.97F
THOMPSON       PTSUNNY   46  30  53 W23G31    29.83S
WINNIPEG       CLOUDY    63  55  77 N10       29.84F
LYNN LAKE      PTSUNNY   43  28  56 NW26G32   29.87R
CHURCHILL      PTSUNNY   43  36  75 W18G26    29.53
GILLAM         PTSUNNY   46  36  66 W21G28    29.72R
$$
                ***SASKATCHEWAN***

CITY           SKY/WX    TMP DP  RH WIND       PRES   REMARKS
ESTEVAN        CLOUDY    61  48  63 NE21G31   29.85S
KINDERSLEY     CLOUDY    54  37  54 E22       30.01
LLOYDMINSTER   PTSUNNY   50  37  62 E10G17    30.06S
PRINCE ALBERT  CLOUDY    50  34  53 NE8       30.07
REGINA         PTSUNNY   59  46  63 NE15      29.96R
YORKTON        SUNNY     55  41  58 NE12G18   29.97R


USA.gov is the U.S. government's official web portal to all federal, state and local government web resources and services.